Other Public Products
Issued by NWS Grand Forks, ND

Home | Current Version | Previous Version | Graphics & Text | Print | Product List | Glossary On
Versions: 1 2 3 4 5 6 7 8 9 10 11 12 13 14 15 16 17 18 19 20 21 22 23 24 25 26 27 28 29 30 31 32 33 34 35 36 37 38 39 40 41 42 43 44 45 46 47 48 49 50
000
FPUS83 KFGF 061531
OPUFGF
PRAIRIE TO PINES WEATHER ROUNDUP
NATIONAL WEATHER SERVICE EASTERN NORTH DAKOTA/GRAND FORKS ND
1000 AM CDT FRI MAY 06 2016

 **SATELLITE DATA USED TO AUGMENT SKY COVER AT AUTOMATED STATIONS**
 *****  WEATHER ACROSS EASTERN NORTH DAKOTA  *****

CITY           SKY/WX    TMP DP  RH WIND       PRES   REMARKS
GRAND FORKS    PTSUNNY   68  45  43 N29G37    29.78R
GRAND FORKS AF FAIR      66  45  45 N23G33    29.79R
GRAND CITY NWS NOT AVBL
BUXTON           N/A     72  50  45 N16G29      N/A
DEVILS LAKE    FAIR      63  44  50 N28G36    29.84R
FARGO          FAIR      76  50  40 SW12      29.74S
WAHPETON ARPT  FAIR      75  46  35 W8        29.77S
$$

 *****  WEATHER ACROSS CENTRAL AND WESTERN NORTH DAKOTA  *****

CITY           SKY/WX    TMP DP  RH WIND       PRES   REMARKS
JAMESTOWN      FAIR      74  46  36 NW18      29.79R
BISMARCK       MOSUNNY   70  49  47 N12       29.88
MINOT          FAIR      69  43  38 N23G33    29.95R
MINOT AFB      FAIR      64  45  50 N21G26    29.95R
GARRISON         N/A     66  47  50 N23G37    29.93R
WILLISTON      MOSUNNY   58  42  55 N20       30.06
DICKINSON      MOSUNNY   62  44  51 N21G26    29.98R
HETTINGER      PTSUNNY   67  46  47 N28G37    29.95R
$$

 *****  OTHER OBSERVATIONS NORTHEAST NORTH DAKOTA  *****

CITY           SKY/WX    TMP DP  RH WIND       PRES   REMARKS
WALHALLA       FAIR      57  39  51 N23G31    29.86F
LANGDON        FAIR      61  41  48 N29       29.87R
CAVALIER       FAIR      57  37  47 N22G40    29.82S
GRAFTON        FAIR      63  43  48 N24G40    29.82R
CANDO          FAIR      64  41  42 N24G31    29.92R
FORT TOTTEN      N/A     63  46  53 NE7       29.95S
ROLLA          FAIR      59  37  44 N25G37    29.92R
RUGBY          FAIR      64  41  42 N20       29.91R
 ***** THE ABOVE OBSERVATIONS ARE NON NWS ARE NOT QUALITY
        CONTROLLED AND MAY MIS-REPORT RAIN FOR SNOW...
$$

 *****  OTHER OBSERVATIONS SOUTHEAST NORTH DAKOTA *****

CITY           SKY/WX    TMP DP  RH WIND       PRES   REMARKS
COOPERSTOWN    NOT AVBL
VALLEY CITY    FAIR      75  50  41 NW18      29.79S
OAKES            N/A    N/A N/A N/A MISG        N/A
GWINNER        FAIR      75  52  43 SW12      29.77F
SHEYENNE NWR     N/A     74  51  44 SW7       29.95S
BUFFALO          N/A     76  47  35 N17         N/A
WYNDMERE         N/A     75  52  43 W10         N/A
 ***** THE ABOVE OBSERVATIONS ARE NON NWS ARE NOT QUALITY
       CONTROLLED AND MAY MIS-REPORT RAIN FOR SNOW...
$$

  *****  WEATHER ACROSS NORTHERN MINNESOTA  *****

CITY           SKY/WX    TMP DP  RH WIND       PRES   REMARKS
FLAG ISLAND    FAIR      64  45  48 NW22      29.67R
WARROAD        FAIR      75  52  43 W17G23    29.69R
ROSEAU         FAIR      75  46  35 NW13G18   29.70R
HALLOCK        FAIR      64  41  42 N23G37    29.79R
THF RVR FALLS  FAIR      70  45  40 NW20      29.75S
HALSTAD          N/A     79  48  34 N17         N/A
FOSSTON        FAIR      72  45  37 SW12      29.75S
BAUDETTE       FAIR      75  45  34 W12       29.67R
WASKISH        FAIR      73  48  40 SW14      29.69F
CROOKSTON      FAIR      68  46  45 N22       29.77R
$$
  *****  WEATHER ACROSS CENTRAL AND WEST MINNESOTA  *****

CITY           SKY/WX    TMP DP  RH WIND       PRES   REMARKS
BEMIDJI        FAIR      79  49  34 SW8       29.73F
PARK RAPIDS    FAIR      78  48  34 SW9       29.76S
WADENA         FAIR      77  50  38 SW13      29.76F
DETROIT LAKES  FAIR      73  48  40 SW7       29.78F
MOORHEAD       FAIR      77  50  38 S7        29.75F
FERGUS FALLS   FAIR      75  52  43 SW8       29.74F
ELBOW LAKE     FAIR      73  51  46 W8        29.78F
MORRIS MN      FAIR      75  52  43 SW9       29.77F
STAPLES        FAIR      77  46  33 SW10      29.77F
WHEATON        FAIR      77  55  47 W7        29.78S
$$
  *****  WEATHER ELSEWHERE ACROSS MINNESOTA  *****

CITY           SKY/WX    TMP DP  RH WIND       PRES   REMARKS
DULUTH         FAIR      82  44  26 W15       29.77F
INTRNTL FALLS  FAIR      78  47  33 SW10      29.66S
ELY            FAIR      81  43  26 SW12      29.71F
CLOQUET        FAIR      82  39  21 SW12      29.77S
BRAINERD       FAIR      77  48  35 SW12      29.78F
HIBBING        FAIR      78  45  30 W10       29.74F
ALEXANDRIA     FAIR      73  48  41 SW13      29.80F
SAINT CLOUD    FAIR      75  48  38 SW13      29.81F
MINNEAPOLIS    FAIR      74  46  36 W12G18    29.85F
$$

  *****  WEATHER ACROSS SOUTH DAKOTA  *****

CITY           SKY/WX    TMP DP  RH WIND       PRES   REMARKS
SIOUX FALLS    FAIR      70  51  51 S9        29.90S
BROOKINGS      FAIR      73  50  44 SW22G30   29.84F
WATERTOWN      FAIR      73  51  46 SW18      29.81F
HURON          SUNNY     75  53  46 W13       29.83S
SISSETON         N/A     76  53  44 W12       29.75S
ABERDEEN       SUNNY     73  52  47 W8        29.80R
MITCHELL       MOSUNNY   75  52  44 SW13      29.87F
PIERRE         SUNNY     70  52  52 W8        29.83S
MOBRIDGE       MOSUNNY   71  55  56 W5        29.81
RAPID CITY     MOSUNNY   71  54  54 CALM      29.91R
$$

  *****  SOME WEATHER IN NEARBY STATES *****

CITY           SKY/WX    TMP DP  RH WIND       PRES   REMARKS
GLASGOW MT     LGT RAIN  51  46  83 N8        30.14F
GREAT FALLS MT CLOUDY    46  44  93 NW7       30.28S
CHEYENNE WY      N/A     63  43  48 S6        30.02S
SCOTTSBLUFF NE MOSUNNY   63  47  55 SE12      29.95S
OMAHA NE       FAIR      72  48  42 S8        30.01
DES MOINES IA  FAIR      71  47  42 W7        30.01S
DAVENPORT IA   FAIR      66  41  40 W14       30.02S
CHICAGO IL     PTSUNNY   63  41  44 SW7       29.98F
EAU CLAIRE WI  FAIR      73  46  38 SW9       29.86F
LA CROSSE WI   FAIR      68  45  43 S10       29.89F
$$

  *****  SOME NATIONAL WEATHER *****

CITY           SKY/WX    TMP DP  RH WIND       PRES   REMARKS
LA GUARDIA NY  CLOUDY    52  48  87 NE13G23   29.73R
RALEIGH NC     PTSUNNY   58  50  75 VRB6      29.74R
ATLANTA GA     PTSUNNY   61  43  51 NW15G26   29.95R
NEW ORLEANS LA FAIR      70  47  43 NE13      30.08R
OKLAHOMA CITY  PTSUNNY   69  51  52 S10       30.12R
ALBUQUERQUE NM SUNNY     73  28  18 S18       30.00F
SALT LAKE CITY CLOUDY    64  40  41 E18       29.82F
LOS ANGELES CA PTSUNNY   60  53  77 E5        29.87R
BOISE ID       CLOUDY    57  50  77 CALM      29.84R
SEATTLE WA     MOSUNNY   57  46  66 N13       30.10S
$$

*** WEATHER ACROSS MANITOBA...SASKATCHEWAN AND ONTARIO ***
                ***ONTARIO***

CITY           SKY/WX    TMP DP  RH WIND       PRES   REMARKS
GERALDTON      CLOUDY    52  39  62 E6        29.69R
THUNDER BAY    PTSUNNY   54  37  54 E7        29.72F
SIOUX LOOKOUT  PTSUNNY   70  46  43 SW7       29.59S
TORONTO        MOSUNNY   64  43  45 NE8       29.88S
BIG TROUT LK   PTSUNNY   37  21  52 E9        29.70F
PICKLE LAKE    CLOUDY    54  39  58 E7        29.60S
DRYDEN         SUNNY     73  43  33 W15G21    29.60S
KENORA         PTSUNNY   72  43  35 NW14G20   29.65R
$$
                *** MANITOBA***

CITY           SKY/WX    TMP DP  RH WIND       PRES   REMARKS
BRANDON        CLOUDY    61  43  51 N15G22    29.97R
DAUPHIN        SUNNY     59  41  51 N14G22    29.98R
ISLAND LAKE    PTSUNNY   37  27  65 NW13G20   29.79R
PILOT MOUND      N/A     59  41  51 N23G30      N/A
THE PAS        PTSUNNY   50  37  62 NW10      29.98R
THOMPSON       PTSUNNY   34  30  86 NW6       29.89R
WINNIPEG       MOSUNNY   59  37  44 N28G39    29.84R
LYNN LAKE      SUNNY     48  36  61 NW12G23   29.92R
CHURCHILL      LGT SNOW  25  23  93 S9        29.92F VSB 1   WCI  15
GILLAM         CLOUDY    25  21  86 NE3       29.89R
$$
                ***SASKATCHEWAN***

CITY           SKY/WX    TMP DP  RH WIND       PRES   REMARKS
ESTEVAN        CLOUDY    57  43  58 N17G25    30.06R
KINDERSLEY     CLOUDY    52  37  58 W8        30.21R
LLOYDMINSTER   CLOUDY    46  32  57 NW6       30.21R
PRINCE ALBERT  MOSUNNY   54  39  58 N15G25    30.10R
REGINA         PTSUNNY   54  39  58 N12G17    30.14S
YORKTON        SUNNY     54  41  62 NW14G20   30.06R  C1F1C2F2C3F3C4F4C5F5C6F6C7F7C8F8C9F9CaFaCbFbCcFcCdFdCe!


USA.gov is the U.S. government's official web portal to all federal, state and local government web resources and services.